Regional Weather Roundup
Issued by NWS

Home | Current Version | Previous Version | Text Only | Print | Product List | Glossary Off
Versions: 1 2 3 4 5 6 7 8 9 10 11 12 13 14 15 16 17 18 19 20 21 22 23 24 25 26 27 28 29 30 31 32 33 34 35 36 37 38 39 40 41 42 43 44 45 46 47 48 49 50

000
ASUS43 KMPX 170510
RWRMN
WEATHER ROUNDUP FOR MINNESOTA
NATIONAL WEATHER SERVICE TWIN CITIES/CHANHASSEN MN
1100 PM CST SAT DEC 16 2017


NOTE: "FAIR" INDICATES FEW OR NO CLOUDS BELOW 12,000 FEET WITH NO
SIGNIFICANT WEATHER AND/OR OBSTRUCTIONS TO VISIBILITY. N/A MEANS
CURRENT SKY AND/OR WEATHER CONDITIONS ARE NOT AVAILABLE.

MNZ060>063-068>070-170600-
   Twin Cities Metro

CITY           SKY/WX    TMP DP  RH WIND       PRES   REMARKS
TWIN CITIES    CLOUDY    23  18  81 NE5       30.12R WCI  17
ST PAUL        CLOUDY    23  17  78 E5        30.14R WCI  17
CRYSTAL        CLOUDY    22  16  78 CALM      30.11S
BLAINE         CLOUDY    21  18  86 E3        30.11F
LAKEVILLE      CLOUDY    19  18  93 NE5       30.10S WCI  13
EDEN PRAIRIE   CLOUDY    24  18  77 CALM      30.10S
SOUTH ST PAUL  CLOUDY    24  17  77 CALM      30.12S
LAKE ELMO      FAIR      21  18  86 CALM      30.13S
$$
MNZ001>005-007-008-013>017-022>024-027-028-170600-
   Northwest Minnesota

CITY           SKY/WX    TMP DP  RH WIND       PRES   REMARKS
BEMIDJI        CLOUDY    24  22  92 CALM      30.05S
HALLOCK        CLOUDY    16  12  86 S9        30.01R WCI   4
ROSEAU         CLOUDY    19  16  86 S6        30.01F HAZE    WCI  11
WARROAD        CLOUDY    19  16  86 S3        30.02S FOG
THIEF RVR FALL FOG       21  20  96 S8        30.05S VSB 1/4 WCI  11
CROOKSTON      CLOUDY    14  12  92 SE6       30.06S WCI   5
FOSSTON        CLOUDY    23  21  93 S8        30.06R WCI  14
DETROIT LAKES  CLOUDY    27  27 100 CALM      30.09R
MOORHEAD       CLOUDY    21  21 100 CALM      30.10S FOG
PARK RAPIDS    CLOUDY    26  23  88 S5        30.06R WCI  20
MAHNOMEN       CLOUDY    25  23  93 S3        30.07R
$$
MNZ006-009>011-018-025>026-170600-
   North Central Minnesota

CITY           SKY/WX    TMP DP  RH WIND       PRES   REMARKS
BAUDETTE       FOG       18  17  96 S6        30.02S VSB 3/4 WCI  10
FLAG ISLAND    CLOUDY    16  16 100 S6        30.00F FOG     WCI   7
INTL FALLS     CLOUDY    20  16  84 S5        30.05R WCI  13
WASKISH        CLOUDY    21  21 100 S3        30.05R
BIG FORK       CLOUDY    21  18  86 S3        30.06R
LONGVILLE      CLOUDY    21  19  93 S5        30.08S WCI  15
GRAND RAPIDS   CLOUDY    20  15  81 S6        30.10R WCI  12
CRANE LAKE     CLOUDY    16  14  93 S3        30.10S
ORR            CLOUDY    19  18  93 S5        30.05R WCI  13
COOK           CLOUDY    21  18  86 SW3       30.08R
WALKER         CLOUDY    23  21  92 S3        30.07R
$$
MNZ012-019>021-037-170600-
   Northeast Minnesota

CITY           SKY/WX    TMP DP  RH WIND       PRES   REMARKS
DULUTH         CLOUDY    19  14  81 S3        30.09R
ELY            CLOUDY    21  18  86 S6        30.07R WCI  14
HIBBING        CLOUDY    19  15  84 VRB5      30.08R WCI  12
EVELETH        CLOUDY    20  13  75 S7        30.09R WCI  11
DULUTH HARBOR  CLOUDY    23  16  74 S3        30.15S
TWO HARBORS    CLOUDY    25  18  74 CALM      30.09S
SILVER BAY     CLOUDY    23  19  86 CALM      30.09R
GRAND MARAIS     N/A     29  21  72 SE12      30.15R WCI  19
G MARAIS ARPRT CLOUDY    18  14  86 SE5       30.08R WCI  11
$$
MNZ029>031-032-039>041-046>048-054>057-064-170600-
   West Central Minnesota

CITY           SKY/WX    TMP DP  RH WIND       PRES   REMARKS
FERGUS FALLS     N/A     23  23 100 CALM      30.12R FOG
WHEATON        CLOUDY    27  25  93 CALM      30.12S FOG
MORRIS         PTCLDY    27  25  93 SW5       30.09R FOG     WCI  21
ALEXANDRIA     CLOUDY    27  26  96 S5        30.09R FOG     WCI  22
ELBOW LAKE     FAIR      23  23 100 CALM      30.10R FOG
WADENA         CLOUDY    25  25 100 CALM      30.07S FOG
GLENWOOD       CLOUDY    27  25  93 S3        30.09S FOG
APPLETON       CLOUDY    30  27  86 CALM      30.10R
BENSON         CLOUDY    28  27  93 S5        30.12R WCI  23
ORTONVILLE     CLOUDY    28  27  93 CALM      30.09S FOG
MADISON        CLOUDY    30  30 100 CALM      30.10S
WILLMAR        FAIR      27  25  93 CALM      30.11S
$$
MNZ033>034-036-042>043-049>051-058-059-170600-
   Central Minnesota

CITY           SKY/WX    TMP DP  RH WIND       PRES   REMARKS
ST CLOUD       CLOUDY    22  18  85 E5        30.10S WCI  16
SAUK CENTRE    CLOUDY    24  24  98 CALM      30.10R FOG
PAYNESVILLE    CLOUDY    25  24  98 CALM      30.11R
AITKIN         CLOUDY    19  18  93 CALM      30.09R
PINE RIVER     CLOUDY    21  18  86 CALM      30.12R
BRAINERD       CLOUDY    24  18  77 S3        30.10R
STAPLES        CLOUDY    25  23  93 S3        30.09R FOG
LONG PRAIRIE   CLOUDY    25  23  93 CALM      30.10R FOG
LITTLE FALLS   CLOUDY    25  18  74 CALM      30.11R
LITCHFIELD     CLOUDY    27  25  93 CALM      30.10F
BUFFALO        CLOUDY    21  18  88 CALM      30.11F
MAPLE LAKE     MOCLDY    23  21  92 CALM      30.11F
HUTCHINSON     CLOUDY    27  24  91 CALM      30.10F
$$
MNZ037-044-045-052-053-170600-
   East Central Minnesota

CITY           SKY/WX    TMP DP  RH WIND       PRES   REMARKS
PRINCETON      CLOUDY    19  18  93 CALM      30.11S
MORA           CLOUDY    23  18  80 CALM      30.14R
CAMBRIDGE      CLOUDY    19  12  73 CALM      30.13R
RUSH CITY      CLOUDY    16  14  93 CALM      30.13R
MOOSE LAKE     CLOUDY    23  18  80 CALM      30.10R
HINCKLEY       CLOUDY    23  19  86 CALM      30.12R
CLOQUET        CLOUDY    19  12  73 CALM      30.10R
MCGREGOR       CLOUDY    23  19  86 CALM      30.10R
$$
MNZ071>073-080-081-089-090-097-098-170600-
   Southwest Minnesota

CITY           SKY/WX    TMP DP  RH WIND       PRES   REMARKS
MONTEVIDEO     CLOUDY    27  25  93 CALM      30.10S
GRANITE FALLS  CLOUDY    28  25  91 NE6       30.10F WCI  21
CANBY          CLOUDY    30  28  90 CALM      30.10S
MARSHALL       PTCLDY    25  22  88 CALM      30.09S
REDWOOD FALLS  CLOUDY    28  26  92 E5        30.08F WCI  23
OLIVIA         CLOUDY    28  27  93 N3        30.08F
PIPESTONE      CLOUDY    25  23  93 NE3       30.04S FOG
WINDOM         HAZE      25  16  68 NE10      30.04F VSB 1/2 WCI  15
WORTHINGTON    PTCLDY    23  22  96 NE6       30.04F WCI  16
JACKSON        CLOUDY    27  27 100 NE10      30.03F FOG     WCI  17
TRACY          CLOUDY    25  25 100 CALM      30.07S FOG
SLAYTON        CLOUDY    25  24  98 N5        30.05S FOG     WCI  19
$$
MNZ065>067-074>077-082>085-091>093-170600-
   South Central Minnesota

CITY           SKY/WX    TMP DP  RH WIND       PRES   REMARKS
MANKATO        CLOUDY    27  24  89 NE5       30.08F WCI  22
NEW ULM        CLOUDY    27  25  93 NE5       30.08F WCI  21
ST JAMES       CLOUDY    28  27  93 N8        30.07F FOG     WCI  20
FAIRMONT       CLOUDY    28  26  92 NE10      30.06F FOG     WCI  19
GLENCOE        CLOUDY    28  28  99 CALM      30.09F
FARIBAULT      PTCLDY    25  21  86 CALM      30.08F
OWATONNA       CLOUDY    25  21  86 N3        30.06F
WASECA         CLOUDY    27  23  86 NE5       30.07F WCI  21
ALBERT LEA     CLOUDY    25  21  86 NE6       30.04F WCI  18
$$
MNZ078>079-086>088-094>096-170600-
   Southeast Minnesota

CITY           SKY/WX    TMP DP  RH WIND       PRES   REMARKS
ROCHESTER      CLOUDY    22  20  92 NE7       30.04F WCI  13
RED WING       CLOUDY    25  16  68 CALM      30.11S
STANTON        CLOUDY    24  20  84 NE5       30.09F WCI  18
DODGE CENTER   CLOUDY    23  19  86 NE6       30.05F WCI  16
WINONA         CLOUDY    30  27  86 CALM      30.11F
AUSTIN         CLOUDY    25  19  80 NE5       30.03F WCI  19
PRESTON        CLOUDY    23  21  92 NE5       30.05F WCI  17
$$
ABBREVIATIONS USED IN REMARKS
   TC - TEMPERATURES IN CELSIUS
  WCI - WIND CHILL INDEX
   HX - HEAT INDEX
  VSB - VISIBILITY
$$




USA.gov is the U.S. government's official web portal to all federal, state and local government web resources and services.